Forest City Municipal Airport
Sunday 2:15 PM
Temperature73° (73°/50°)
Dew Point45°
Relative Humidity36
%
Visibility10
mi
Pressure1023.7
mb
Wind DirectionS
170°
Wind Speed13
mph
(G16)
Precipitation Today0.00"

Last 30 Observations

Time PresWx Temp DP Feels RH% Vsby Pressure Ceiling Direction Speed 1h Precip
2:15 PM 73° 45° 36
%
10
mi
1023.7
mb
10,000
ft
S
170°
13
mph
(G16)
0.00"
1:55 PM 73° 45° 36
%
10
mi
1024.4
mb
8,000
ft
S
180°
11
mph
0.00"
1:35 PM 73° 45° 36
%
10
mi
1024.4
mb
8,000
ft
S
190°
14
mph
(G20)
0.00"
1:15 PM 72° 45° 38
%
10
mi
1024.7
mb
8,000
ft
S
180°
11
mph
(G17)
0.00"
12:55 PM 73° 46° 38
%
10
mi
1025.1
mb
S
190°
15
mph
0.00"
12:35 PM 72° 45° 38
%
10
mi
1025.1
mb
9,000
ft
S
180°
11
mph
0.00"
12:15 PM 72° 46° 41
%
10
mi
1025.4
mb
SSW
200°
10
mph
(G17)
0.00"
11:55 AM 72° 45° 38
%
10
mi
1025.4
mb
S
180°
13
mph
0.00"
11:35 AM 70° 45° 40
%
10
mi
1025.7
mb
10,000
ft
S
190°
14
mph
0.00"
11:15 AM 70° 43° 38
%
10
mi
1025.7
mb
S
180°
14
mph
(G18)
0.00"
10:55 AM 70° 43° 38
%
10
mi
1025.7
mb
S
180°
15
mph
0.00"
10:35 AM 68° 43° 40
%
10
mi
1026.1
mb
SSE
160°
13
mph
(G18)
0.00"
10:15 AM 68° 43° 40
%
10
mi
1026.4
mb
S
170°
11
mph
0.00"
9:55 AM 68° 43° 40
%
10
mi
1026.4
mb
SSE
160°
15
mph
0.00"
9:35 AM 64° 43° 45
%
10
mi
1026.8
mb
SSE
160°
13
mph
0.00"
9:15 AM 64° 41° 42
%
10
mi
1026.4
mb
SSE
150°
14
mph
0.00"
8:55 AM 63° 41° 45
%
10
mi
1026.8
mb
10,000
ft
SE
140°
9
mph
0.00"
8:35 AM 61° 39° 45
%
10
mi
1026.8
mb
9,000
ft
SE
140°
11
mph
0.00"
8:15 AM 61° 39° 45
%
10
mi
1026.4
mb
11,000
ft
SE
130°
8
mph
0.00"
7:55 AM 59° 43° 55
%
10
mi
1026.4
mb
10,000
ft
SE
130°
7
mph
0.00"
7:35 AM 55° 43° 62
%
10
mi
1026.4
mb
SE
130°
3
mph
0.00"
7:15 AM 54° 43° 67
%
10
mi
1026.1
mb
ESE
120°
5
mph
0.00"
6:55 AM 52° 43° 71
%
10
mi
1026.1
mb
ESE
110°
5
mph
0.00"
6:35 AM 52° 41° 67
%
10
mi
1026.1
mb
ESE
110°
5
mph
0.00"
6:15 AM 50° 41° 71
%
10
mi
1026.1
mb
ESE
110°
3
mph
0.00"
5:55 AM 50° 41° 71
%
10
mi
1025.7
mb
E
100°
5
mph
0.00"
5:35 AM 50° 41° 71
%
10
mi
1025.4
mb
Calm 0.00"
5:15 AM 50° 41° 71
%
10
mi
1025.4
mb
ESE
110°
3
mph
0.00"
4:55 AM 50° 41° 71
%
10
mi
1025.1
mb
E
100°
3
mph
0.00"
4:35 AM 50° 41° 71
%
10
mi
1025.4
mb
E
100°
3
mph
0.00"